Year,Month,Day,Hour,Minute,Value (Times are PST for temperature in C)
2018,05,28,00,00,15.50
2018,05,28,00,01,15.50
2018,05,28,00,02,15.50
2018,05,28,00,03,15.50
2018,05,28,00,04,15.50
2018,05,28,00,05,15.50
2018,05,28,00,06,15.50
2018,05,28,00,07,15.50
2018,05,28,00,08,15.50
2018,05,28,00,09,15.50
2018,05,28,00,10,15.50
2018,05,28,00,11,15.50
2018,05,28,00,12,15.50
2018,05,28,00,13,15.60
2018,05,28,00,14,15.60
2018,05,28,00,15,15.60
2018,05,28,00,16,15.60
2018,05,28,00,17,15.60
2018,05,28,00,18,15.60
2018,05,28,00,19,15.60
2018,05,28,00,20,15.60
2018,05,28,00,21,15.60
2018,05,28,00,22,15.60
2018,05,28,00,23,15.60
2018,05,28,00,24,15.50
2018,05,28,00,25,15.50
2018,05,28,00,26,15.50
2018,05,28,00,27,15.50
2018,05,28,00,28,15.40
2018,05,28,00,29,15.40
2018,05,28,00,30,15.40
2018,05,28,00,31,15.40
2018,05,28,00,32,15.40
2018,05,28,00,33,15.30
2018,05,28,00,34,15.30
2018,05,28,00,35,15.30
2018,05,28,00,36,15.30
2018,05,28,00,37,15.30
2018,05,28,00,38,15.30
2018,05,28,00,39,15.20
2018,05,28,00,40,15.20
2018,05,28,00,41,15.20
2018,05,28,00,42,15.20
2018,05,28,00,43,15.20
2018,05,28,00,44,15.20
2018,05,28,00,45,15.20
2018,05,28,00,46,15.10
2018,05,28,00,47,15.10
2018,05,28,00,48,15.10
2018,05,28,00,49,15.10
2018,05,28,00,50,15.10
2018,05,28,00,51,15.00
2018,05,28,00,52,15.00
2018,05,28,00,53,15.00
2018,05,28,00,54,14.90
2018,05,28,00,55,14.90
2018,05,28,00,56,14.90
2018,05,28,00,57,14.90
2018,05,28,00,58,14.90
2018,05,28,00,59,14.90
2018,05,28,01,00,14.80
2018,05,28,01,01,14.80
2018,05,28,01,02,14.80
2018,05,28,01,03,14.80
2018,05,28,01,04,14.80
2018,05,28,01,05,14.80
2018,05,28,01,06,14.80
2018,05,28,01,07,14.70
2018,05,28,01,08,14.70
2018,05,28,01,09,14.70
2018,05,28,01,10,14.70
2018,05,28,01,11,14.70
2018,05,28,01,12,14.70
2018,05,28,01,13,14.70
2018,05,28,01,14,14.70
2018,05,28,01,15,14.60
2018,05,28,01,16,14.60
2018,05,28,01,17,14.60
2018,05,28,01,18,14.60
2018,05,28,01,19,14.60
2018,05,28,01,20,14.50
2018,05,28,01,21,14.50
2018,05,28,01,22,14.50
2018,05,28,01,23,14.40
2018,05,28,01,24,14.40
2018,05,28,01,25,14.40
2018,05,28,01,26,14.40
2018,05,28,01,27,14.30
2018,05,28,01,28,14.30
2018,05,28,01,29,14.30
2018,05,28,01,30,14.30
2018,05,28,01,31,14.30
2018,05,28,01,32,14.20
2018,05,28,01,33,14.20
2018,05,28,01,34,14.20
2018,05,28,01,35,14.20
2018,05,28,01,36,14.20
2018,05,28,01,37,14.20
2018,05,28,01,38,14.10
2018,05,28,01,39,14.10
2018,05,28,01,40,14.10
2018,05,28,01,41,14.10
2018,05,28,01,42,14.10
2018,05,28,01,43,14.10
2018,05,28,01,44,14.10
2018,05,28,01,45,14.00
2018,05,28,01,46,14.00
2018,05,28,01,47,13.90
2018,05,28,01,48,13.90
2018,05,28,01,49,13.90
2018,05,28,01,50,13.80
2018,05,28,01,51,13.80
2018,05,28,01,52,13.80
2018,05,28,01,53,13.80
2018,05,28,01,54,13.70
2018,05,28,01,55,13.70
2018,05,28,01,56,13.70
2018,05,28,01,57,13.60
2018,05,28,01,58,13.60
2018,05,28,01,59,13.60
2018,05,28,02,00,13.60
2018,05,28,02,01,13.50
2018,05,28,02,02,13.50
2018,05,28,02,03,13.40
2018,05,28,02,04,13.40
2018,05,28,02,05,13.40
2018,05,28,02,06,13.40
2018,05,28,02,07,13.30
2018,05,28,02,08,13.30
2018,05,28,02,09,13.30
2018,05,28,02,10,13.30
2018,05,28,02,11,13.30
2018,05,28,02,12,13.20
2018,05,28,02,13,13.20
2018,05,28,02,14,13.20
2018,05,28,02,15,13.20
2018,05,28,02,16,13.20
2018,05,28,02,17,13.10
2018,05,28,02,18,13.10
2018,05,28,02,19,13.10
2018,05,28,02,20,13.10
2018,05,28,02,21,13.10
2018,05,28,02,22,13.10
2018,05,28,02,23,13.10
2018,05,28,02,24,13.00
2018,05,28,02,25,13.00
2018,05,28,02,26,13.00
2018,05,28,02,27,12.90
2018,05,28,02,28,12.90
2018,05,28,02,29,12.90
2018,05,28,02,30,12.90
2018,05,28,02,31,12.80
2018,05,28,02,32,12.80
2018,05,28,02,33,12.80
2018,05,28,02,34,12.70
2018,05,28,02,35,12.70
2018,05,28,02,36,12.70
2018,05,28,02,37,12.60
2018,05,28,02,38,12.60
2018,05,28,02,39,12.60
2018,05,28,02,40,12.50
2018,05,28,02,41,12.50
2018,05,28,02,42,12.50
2018,05,28,02,43,12.40
2018,05,28,02,44,12.40
2018,05,28,02,45,12.40
2018,05,28,02,46,12.30
2018,05,28,02,47,12.30
2018,05,28,02,48,12.30
2018,05,28,02,49,12.20
2018,05,28,02,50,12.20
2018,05,28,02,51,12.20
2018,05,28,02,52,12.20
2018,05,28,02,53,12.10
2018,05,28,02,54,12.10
2018,05,28,02,55,12.10
2018,05,28,02,56,12.10
2018,05,28,02,57,12.10
2018,05,28,02,58,12.00
2018,05,28,02,59,12.00
2018,05,28,03,00,12.00
2018,05,28,03,01,12.00
2018,05,28,03,02,12.00
2018,05,28,03,03,11.90
2018,05,28,03,04,11.90
2018,05,28,03,05,11.90
2018,05,28,03,06,11.90
2018,05,28,03,07,11.90
2018,05,28,03,08,11.90
2018,05,28,03,09,11.90
2018,05,28,03,10,11.90
2018,05,28,03,11,11.90
2018,05,28,03,12,11.90
2018,05,28,03,13,11.90
2018,05,28,03,14,11.90
2018,05,28,03,15,11.90
2018,05,28,03,16,11.90
2018,05,28,03,17,11.90
2018,05,28,03,18,11.90
2018,05,28,03,19,11.90
2018,05,28,03,20,11.90
2018,05,28,03,21,11.90
2018,05,28,03,22,11.90
2018,05,28,03,23,11.90
2018,05,28,03,24,11.90
2018,05,28,03,25,11.90
2018,05,28,03,26,11.90
2018,05,28,03,27,11.90
2018,05,28,03,28,11.90
2018,05,28,03,29,11.90
2018,05,28,03,30,11.90
2018,05,28,03,31,12.00
2018,05,28,03,32,12.00
2018,05,28,03,33,12.00
2018,05,28,03,34,12.00
2018,05,28,03,35,12.00
2018,05,28,03,36,12.00
2018,05,28,03,37,12.00
2018,05,28,03,38,12.00
2018,05,28,03,39,12.00
2018,05,28,03,40,12.00
2018,05,28,03,41,12.00
2018,05,28,03,42,12.00
2018,05,28,03,43,12.00
2018,05,28,03,44,12.00
2018,05,28,03,45,11.90
2018,05,28,03,46,11.90
2018,05,28,03,47,11.90
2018,05,28,03,48,11.90
2018,05,28,03,49,11.90
2018,05,28,03,50,11.90
2018,05,28,03,51,11.90
2018,05,28,03,52,11.90
2018,05,28,03,53,11.90
2018,05,28,03,54,11.90
2018,05,28,03,55,11.90
2018,05,28,03,56,11.90
2018,05,28,03,57,11.90
2018,05,28,03,58,11.90
2018,05,28,03,59,11.90
2018,05,28,04,00,11.90
2018,05,28,04,01,11.90
2018,05,28,04,02,11.90
2018,05,28,04,03,11.90
2018,05,28,04,04,11.90
2018,05,28,04,05,11.90
2018,05,28,04,06,11.90
2018,05,28,04,07,11.90
2018,05,28,04,08,11.90
2018,05,28,04,09,11.90
2018,05,28,04,10,11.90
2018,05,28,04,11,11.90
2018,05,28,04,12,11.80
2018,05,28,04,13,11.80
2018,05,28,04,14,11.80
2018,05,28,04,15,11.80
2018,05,28,04,16,11.80
2018,05,28,04,17,11.80
2018,05,28,04,18,11.80
2018,05,28,04,19,11.90
2018,05,28,04,20,11.90
2018,05,28,04,21,11.90
2018,05,28,04,22,11.90
2018,05,28,04,23,11.90
2018,05,28,04,24,11.90
2018,05,28,04,25,11.90
2018,05,28,04,26,11.80
2018,05,28,04,27,11.80
2018,05,28,04,28,11.80
2018,05,28,04,29,11.90
2018,05,28,04,30,11.90
2018,05,28,04,31,11.90
2018,05,28,04,32,11.90
2018,05,28,04,33,11.90
2018,05,28,04,34,11.90
2018,05,28,04,35,11.90
2018,05,28,04,36,11.90
2018,05,28,04,37,11.90
2018,05,28,04,38,11.80
2018,05,28,04,39,11.90
2018,05,28,04,40,11.80
2018,05,28,04,41,11.80
2018,05,28,04,42,11.80
2018,05,28,04,43,11.80
2018,05,28,04,44,11.80
2018,05,28,04,45,11.80
2018,05,28,04,46,11.80
2018,05,28,04,47,11.80
2018,05,28,04,48,11.80
2018,05,28,04,49,11.80
2018,05,28,04,50,11.80
2018,05,28,04,51,11.90
2018,05,28,04,52,11.90
2018,05,28,04,53,11.90
2018,05,28,04,54,11.90
2018,05,28,04,55,11.90
2018,05,28,04,56,11.90
2018,05,28,04,57,11.90
2018,05,28,04,58,11.90
2018,05,28,04,59,11.90
2018,05,28,05,00,11.90
2018,05,28,05,01,11.90
2018,05,28,05,02,12.00
2018,05,28,05,03,12.00
2018,05,28,05,04,12.00
2018,05,28,05,05,12.00
2018,05,28,05,06,12.00
2018,05,28,05,07,12.00
2018,05,28,05,08,12.00
2018,05,28,05,09,12.00
2018,05,28,05,10,12.00
2018,05,28,05,11,12.00
2018,05,28,05,12,11.90
2018,05,28,05,13,11.90
2018,05,28,05,14,11.90
2018,05,28,05,15,11.90
2018,05,28,05,16,11.90
2018,05,28,05,17,11.90
2018,05,28,05,18,11.90
2018,05,28,05,19,11.90
2018,05,28,05,20,11.80
2018,05,28,05,21,11.80
2018,05,28,05,22,11.80
2018,05,28,05,23,11.80
2018,05,28,05,24,11.80
2018,05,28,05,25,11.80
2018,05,28,05,26,11.80
2018,05,28,05,27,11.80
2018,05,28,05,28,11.70
2018,05,28,05,29,11.70
2018,05,28,05,30,11.70
2018,05,28,05,31,11.70
2018,05,28,05,32,11.70
2018,05,28,05,33,11.70
2018,05,28,05,34,11.70
2018,05,28,05,35,11.60
2018,05,28,05,36,11.60
2018,05,28,05,37,11.60
2018,05,28,05,38,11.60
2018,05,28,05,39,11.60
2018,05,28,05,40,11.60
2018,05,28,05,41,11.60
2018,05,28,05,42,11.60
2018,05,28,05,43,11.60
2018,05,28,05,44,11.50
2018,05,28,05,45,11.50
2018,05,28,05,46,11.50
2018,05,28,05,47,11.50
2018,05,28,05,48,11.40
2018,05,28,05,49,11.40
2018,05,28,05,50,11.40
2018,05,28,05,51,11.30
2018,05,28,05,52,11.30
2018,05,28,05,53,11.30
2018,05,28,05,54,11.30
2018,05,28,05,55,11.30
2018,05,28,05,56,11.30
2018,05,28,05,57,11.30
2018,05,28,05,58,11.20
2018,05,28,05,59,11.20
2018,05,28,06,00,11.20
2018,05,28,06,01,11.20
2018,05,28,06,02,11.20
2018,05,28,06,03,11.20
2018,05,28,06,04,11.20
2018,05,28,06,05,11.20
2018,05,28,06,06,11.10
2018,05,28,06,07,11.10
2018,05,28,06,08,11.10
2018,05,28,06,09,11.10
2018,05,28,06,10,11.10
2018,05,28,06,11,11.10
2018,05,28,06,12,11.10
2018,05,28,06,13,11.00
2018,05,28,06,14,11.00
2018,05,28,06,15,11.00
2018,05,28,06,16,11.00
2018,05,28,06,17,11.00
2018,05,28,06,18,11.00
2018,05,28,06,19,11.00
2018,05,28,06,20,11.00
2018,05,28,06,21,11.00
2018,05,28,06,22,11.10
2018,05,28,06,23,11.10
2018,05,28,06,24,11.10
2018,05,28,06,25,11.10
2018,05,28,06,26,11.10
2018,05,28,06,27,11.10
2018,05,28,06,28,11.10
2018,05,28,06,29,11.10
2018,05,28,06,30,11.10
2018,05,28,06,31,11.10
2018,05,28,06,32,11.10
2018,05,28,06,33,11.10
2018,05,28,06,34,11.10
2018,05,28,06,35,11.10
2018,05,28,06,36,11.10
2018,05,28,06,37,11.10
2018,05,28,06,38,11.20
2018,05,28,06,39,11.20
2018,05,28,06,40,11.20
2018,05,28,06,41,11.30
2018,05,28,06,42,11.30
2018,05,28,06,43,11.40
2018,05,28,06,44,11.40
2018,05,28,06,45,11.50
2018,05,28,06,46,11.50
2018,05,28,06,47,11.60
2018,05,28,06,48,11.60
2018,05,28,06,49,11.70
2018,05,28,06,50,11.70
2018,05,28,06,51,11.80
2018,05,28,06,52,11.80
2018,05,28,06,53,11.90
2018,05,28,06,54,11.90
2018,05,28,06,55,12.00
2018,05,28,06,56,12.00
2018,05,28,06,57,12.10
2018,05,28,06,58,12.10
2018,05,28,06,59,12.20
2018,05,28,07,00,12.20
2018,05,28,07,01,12.30
2018,05,28,07,02,12.30
2018,05,28,07,03,12.40
2018,05,28,07,04,12.40
2018,05,28,07,05,12.50
2018,05,28,07,06,12.60
2018,05,28,07,07,12.60
2018,05,28,07,08,12.70
2018,05,28,07,09,12.70
2018,05,28,07,10,12.70
2018,05,28,07,11,12.80
2018,05,28,07,12,12.80
2018,05,28,07,13,12.80
2018,05,28,07,14,12.90
2018,05,28,07,15,12.90
2018,05,28,07,16,12.90
2018,05,28,07,17,13.00
2018,05,28,07,18,13.00
2018,05,28,07,19,13.10
2018,05,28,07,20,13.10
2018,05,28,07,21,13.10
2018,05,28,07,22,13.20
2018,05,28,07,23,13.20
2018,05,28,07,24,13.20
2018,05,28,07,25,13.20
2018,05,28,07,26,13.30
2018,05,28,07,27,13.30
2018,05,28,07,28,13.30
2018,05,28,07,29,13.30
2018,05,28,07,30,13.30
2018,05,28,07,31,13.30
2018,05,28,07,32,13.40
2018,05,28,07,33,13.40
2018,05,28,07,34,13.40
2018,05,28,07,35,13.40
2018,05,28,07,36,13.40
2018,05,28,07,37,13.40
2018,05,28,07,38,13.50
2018,05,28,07,39,13.50
2018,05,28,07,40,13.50
2018,05,28,07,41,13.60
2018,05,28,07,42,13.60
2018,05,28,07,43,13.60
2018,05,28,07,44,13.60
2018,05,28,07,45,13.60
2018,05,28,07,46,13.70
2018,05,28,07,47,13.70
2018,05,28,07,48,13.80
2018,05,28,07,49,13.80
2018,05,28,07,50,13.80
2018,05,28,07,51,13.90
2018,05,28,07,52,13.90
2018,05,28,07,53,13.90
2018,05,28,07,54,14.00
2018,05,28,07,55,14.00
2018,05,28,07,56,14.00
2018,05,28,07,57,14.00
2018,05,28,07,58,14.00
2018,05,28,07,59,14.00
2018,05,28,08,00,13.90
2018,05,28,08,01,13.90
2018,05,28,08,02,13.90
2018,05,28,08,03,14.00
2018,05,28,08,04,14.00
2018,05,28,08,05,14.10
2018,05,28,08,06,14.10
2018,05,28,08,07,14.10
2018,05,28,08,08,14.10
2018,05,28,08,09,14.10
2018,05,28,08,10,14.20
2018,05,28,08,11,14.20
2018,05,28,08,12,14.20
2018,05,28,08,13,14.20
2018,05,28,08,14,14.30
2018,05,28,08,15,14.30
2018,05,28,08,16,14.40
2018,05,28,08,17,14.50
2018,05,28,08,18,14.50
2018,05,28,08,19,14.60
2018,05,28,08,20,14.70
2018,05,28,08,21,14.70
2018,05,28,08,22,14.70
2018,05,28,08,23,14.80
2018,05,28,08,24,14.80
2018,05,28,08,25,14.80
2018,05,28,08,26,14.80
2018,05,28,08,27,14.90
2018,05,28,08,28,14.90
2018,05,28,08,29,14.90
2018,05,28,08,30,14.80
2018,05,28,08,31,14.80
2018,05,28,08,32,14.80
2018,05,28,08,33,14.80
2018,05,28,08,34,14.80
2018,05,28,08,35,14.80
2018,05,28,08,36,14.80
2018,05,28,08,37,14.80
2018,05,28,08,38,14.80
2018,05,28,08,39,14.80
2018,05,28,08,40,14.80
2018,05,28,08,41,14.80
2018,05,28,08,42,14.80
2018,05,28,08,43,14.80
2018,05,28,08,44,14.80
2018,05,28,08,45,14.90
2018,05,28,08,46,14.90
2018,05,28,08,47,14.90
2018,05,28,08,48,14.90
2018,05,28,08,49,14.90
2018,05,28,08,50,14.90
2018,05,28,08,51,14.90
2018,05,28,08,52,14.90
2018,05,28,08,53,14.90
2018,05,28,08,54,14.90
2018,05,28,08,55,14.90
2018,05,28,08,56,14.90
2018,05,28,08,57,14.90
2018,05,28,08,58,14.90
2018,05,28,08,59,14.90
2018,05,28,09,00,15.00
2018,05,28,09,01,14.90
2018,05,28,09,02,14.90
2018,05,28,09,03,14.90
2018,05,28,09,04,14.90
2018,05,28,09,05,14.90
2018,05,28,09,06,14.90
2018,05,28,09,07,14.90
2018,05,28,09,08,14.90
2018,05,28,09,09,14.90
2018,05,28,09,10,14.90
2018,05,28,09,11,14.90
2018,05,28,09,12,14.90
2018,05,28,09,13,14.90
2018,05,28,09,14,14.90
2018,05,28,09,15,15.00
2018,05,28,09,16,15.00
2018,05,28,09,17,15.00
2018,05,28,09,18,15.00
2018,05,28,09,19,15.00
2018,05,28,09,20,15.00
2018,05,28,09,21,15.00
2018,05,28,09,22,15.00
2018,05,28,09,23,15.00
2018,05,28,09,24,15.00
2018,05,28,09,25,14.90
2018,05,28,09,26,14.90
2018,05,28,09,27,14.90
2018,05,28,09,28,14.90
2018,05,28,09,29,15.00
2018,05,28,09,30,15.00
2018,05,28,09,31,15.00
2018,05,28,09,32,15.10
2018,05,28,09,33,15.10
2018,05,28,09,34,15.10
2018,05,28,09,35,15.10
2018,05,28,09,36,15.10
2018,05,28,09,37,15.10
2018,05,28,09,38,15.10
2018,05,28,09,39,15.10
2018,05,28,09,40,15.10
2018,05,28,09,41,15.10
2018,05,28,09,42,15.00
2018,05,28,09,43,15.00
2018,05,28,09,44,14.90
2018,05,28,09,45,14.90
2018,05,28,09,46,14.90
2018,05,28,09,47,14.90
2018,05,28,09,48,14.80
2018,05,28,09,49,14.80
2018,05,28,09,50,14.80
2018,05,28,09,51,14.80
2018,05,28,09,52,14.80
2018,05,28,09,53,14.80
2018,05,28,09,54,14.80
2018,05,28,09,55,14.80
2018,05,28,09,56,14.80
2018,05,28,09,57,14.80
2018,05,28,09,58,14.80
2018,05,28,09,59,14.80
2018,05,28,10,00,14.90
2018,05,28,10,01,14.90
2018,05,28,10,02,15.00
2018,05,28,10,03,15.00
2018,05,28,10,04,15.00
2018,05,28,10,05,15.00
2018,05,28,10,06,15.00
2018,05,28,10,07,15.00
2018,05,28,10,08,15.00
2018,05,28,10,09,15.00
2018,05,28,10,10,15.10
2018,05,28,10,11,15.10
2018,05,28,10,12,15.20
2018,05,28,10,13,15.20
2018,05,28,10,14,15.30
2018,05,28,10,15,15.30
2018,05,28,10,16,15.30
2018,05,28,10,17,15.30
2018,05,28,10,18,15.30
2018,05,28,10,19,15.30
2018,05,28,10,20,15.30
2018,05,28,10,21,15.40
2018,05,28,10,22,15.40
2018,05,28,10,23,15.40
2018,05,28,10,24,15.50
2018,05,28,10,25,15.50
2018,05,28,10,26,15.40
2018,05,28,10,27,15.40
2018,05,28,10,28,15.40
2018,05,28,10,29,15.40
2018,05,28,10,30,15.40
2018,05,28,10,31,15.40
2018,05,28,10,32,15.40
2018,05,28,10,33,15.50
2018,05,28,10,34,15.50
2018,05,28,10,35,15.50
2018,05,28,10,36,15.40
2018,05,28,10,37,15.40
2018,05,28,10,38,15.30
2018,05,28,10,39,15.30
2018,05,28,10,40,15.20
2018,05,28,10,41,15.20
2018,05,28,10,42,15.10
2018,05,28,10,43,15.10
2018,05,28,10,44,15.20
2018,05,28,10,45,15.10
2018,05,28,10,46,15.10
2018,05,28,10,47,15.10
2018,05,28,10,48,15.10
2018,05,28,10,49,15.10
2018,05,28,10,50,15.10
2018,05,28,10,51,15.00
2018,05,28,10,52,15.00
2018,05,28,10,53,15.00
2018,05,28,10,54,14.90
2018,05,28,10,55,14.90
2018,05,28,10,56,14.90
2018,05,28,10,57,14.90
2018,05,28,10,58,15.00
2018,05,28,10,59,15.00
2018,05,28,11,00,15.00
2018,05,28,11,01,15.00
2018,05,28,11,02,15.10
2018,05,28,11,03,15.10
2018,05,28,11,04,15.00
2018,05,28,11,05,15.00
2018,05,28,11,06,14.90
2018,05,28,11,07,14.90
2018,05,28,11,08,15.00
2018,05,28,11,09,15.00
2018,05,28,11,10,15.00
2018,05,28,11,11,14.90
2018,05,28,11,12,14.90
2018,05,28,11,13,14.90
2018,05,28,11,14,14.80
2018,05,28,11,15,14.80
2018,05,28,11,16,14.80
2018,05,28,11,17,14.80
2018,05,28,11,18,14.80
2018,05,28,11,19,14.80
2018,05,28,11,20,14.80
2018,05,28,11,21,14.90
2018,05,28,11,22,15.00
2018,05,28,11,23,15.00
2018,05,28,11,24,15.00
2018,05,28,11,25,15.00
2018,05,28,11,26,15.00
2018,05,28,11,27,15.00
2018,05,28,11,28,15.10
2018,05,28,11,29,15.10
2018,05,28,11,30,15.20
2018,05,28,11,31,15.20
2018,05,28,11,32,15.20
2018,05,28,11,33,15.20
2018,05,28,11,34,15.30
2018,05,28,11,35,15.30
2018,05,28,11,36,15.30
2018,05,28,11,37,15.40
2018,05,28,11,38,15.40
2018,05,28,11,39,15.40
2018,05,28,11,40,15.50
2018,05,28,11,41,15.60
2018,05,28,11,42,15.60
2018,05,28,11,43,15.60
2018,05,28,11,44,15.60
2018,05,28,11,45,15.60
2018,05,28,11,46,15.60
2018,05,28,11,47,15.60
2018,05,28,11,48,15.60
2018,05,28,11,49,15.60
2018,05,28,11,50,15.60
2018,05,28,11,51,15.70
2018,05,28,11,52,15.70
2018,05,28,11,53,15.80
2018,05,28,11,54,15.80
2018,05,28,11,55,15.80
2018,05,28,11,56,15.80
2018,05,28,11,57,15.80
2018,05,28,11,58,15.80
2018,05,28,11,59,15.90
2018,05,28,12,00,15.90
2018,05,28,12,01,15.90
2018,05,28,12,02,16.00
2018,05,28,12,03,16.10
2018,05,28,12,04,16.20
2018,05,28,12,05,16.30
2018,05,28,12,06,16.30
2018,05,28,12,07,16.30
2018,05,28,12,08,16.30
2018,05,28,12,09,16.20
2018,05,28,12,10,16.20
2018,05,28,12,11,16.20
2018,05,28,12,12,16.20
2018,05,28,12,13,16.10
2018,05,28,12,14,16.10
2018,05,28,12,15,16.10
2018,05,28,12,16,16.10
2018,05,28,12,17,16.20
2018,05,28,12,18,16.20
2018,05,28,12,19,16.20
2018,05,28,12,20,16.20
2018,05,28,12,21,16.20
2018,05,28,12,22,16.20
2018,05,28,12,23,16.30
2018,05,28,12,24,16.30
2018,05,28,12,25,16.30
2018,05,28,12,26,16.30
2018,05,28,12,27,16.30
2018,05,28,12,28,16.40
2018,05,28,12,29,16.40
2018,05,28,12,30,16.40
2018,05,28,12,31,16.40
2018,05,28,12,32,16.50
2018,05,28,12,33,16.50
2018,05,28,12,34,16.60
2018,05,28,12,35,16.70
2018,05,28,12,36,16.70
2018,05,28,12,37,16.70
2018,05,28,12,38,16.70
2018,05,28,12,39,16.80
2018,05,28,12,40,16.80
2018,05,28,12,41,16.90
2018,05,28,12,42,16.90
2018,05,28,12,43,16.90
2018,05,28,12,44,17.00
2018,05,28,12,45,17.10
2018,05,28,12,46,17.20
2018,05,28,12,47,17.20
2018,05,28,12,48,17.30
2018,05,28,12,49,17.30
2018,05,28,12,50,17.30
2018,05,28,12,51,17.30
2018,05,28,12,52,17.30
2018,05,28,12,53,17.30
2018,05,28,12,54,17.30
2018,05,28,12,55,17.30
2018,05,28,12,56,17.20
2018,05,28,12,57,17.10
2018,05,28,12,58,17.10
2018,05,28,12,59,17.10
2018,05,28,13,00,17.10
2018,05,28,13,01,17.10
2018,05,28,13,02,17.10
2018,05,28,13,03,17.10
2018,05,28,13,04,17.10
2018,05,28,13,05,17.10
2018,05,28,13,06,17.10
2018,05,28,13,07,17.10
2018,05,28,13,08,17.10
2018,05,28,13,09,17.10
2018,05,28,13,10,17.10
2018,05,28,13,11,17.10
2018,05,28,13,12,17.10
2018,05,28,13,13,17.10
2018,05,28,13,14,17.10
2018,05,28,13,15,17.10
2018,05,28,13,16,17.10
2018,05,28,13,17,17.00
2018,05,28,13,18,17.00
2018,05,28,13,19,17.00
2018,05,28,13,20,16.90
2018,05,28,13,21,16.90
2018,05,28,13,22,16.90
2018,05,28,13,23,16.90
2018,05,28,13,24,17.00
2018,05,28,13,25,17.10
2018,05,28,13,26,17.10
2018,05,28,13,27,17.10
2018,05,28,13,28,17.10
2018,05,28,13,29,17.10
2018,05,28,13,30,17.10
2018,05,28,13,31,17.10
2018,05,28,13,32,17.10
2018,05,28,13,33,17.10
2018,05,28,13,34,17.10
2018,05,28,13,35,17.00
2018,05,28,13,36,17.00
2018,05,28,13,37,16.90
2018,05,28,13,38,16.90
2018,05,28,13,39,16.90
2018,05,28,13,40,16.80
2018,05,28,13,41,16.80
2018,05,28,13,42,16.80
2018,05,28,13,43,16.80
2018,05,28,13,44,16.80
2018,05,28,13,45,16.80
2018,05,28,13,46,16.80
2018,05,28,13,47,16.90
2018,05,28,13,48,16.90
2018,05,28,13,49,16.90
2018,05,28,13,50,16.80
2018,05,28,13,51,16.80
2018,05,28,13,52,16.70
2018,05,28,13,53,16.70
2018,05,28,13,54,16.70
2018,05,28,13,55,16.70
2018,05,28,13,56,16.70
2018,05,28,13,57,16.80
2018,05,28,13,58,16.90
2018,05,28,13,59,16.90
2018,05,28,14,00,16.90
2018,05,28,14,01,16.80
2018,05,28,14,02,16.80
2018,05,28,14,03,16.80
2018,05,28,14,04,16.80
2018,05,28,14,05,16.80
2018,05,28,14,06,16.80
2018,05,28,14,07,16.80
2018,05,28,14,08,16.80
2018,05,28,14,09,16.80
2018,05,28,14,10,16.80
2018,05,28,14,11,16.80
2018,05,28,14,12,16.70
2018,05,28,14,13,16.70
2018,05,28,14,14,16.70
2018,05,28,14,15,16.70
2018,05,28,14,16,16.80
2018,05,28,14,17,16.80
2018,05,28,14,18,16.80
2018,05,28,14,19,16.80
2018,05,28,14,20,16.80
2018,05,28,14,21,16.80
2018,05,28,14,22,16.80
2018,05,28,14,23,16.80
2018,05,28,14,24,16.80
2018,05,28,14,25,16.80
2018,05,28,14,26,16.80
2018,05,28,14,27,16.90
2018,05,28,14,28,16.90
2018,05,28,14,29,16.90
2018,05,28,14,30,16.90
2018,05,28,14,31,16.90
2018,05,28,14,32,16.90
2018,05,28,14,33,16.90
2018,05,28,14,34,16.90
2018,05,28,14,35,16.90
2018,05,28,14,36,16.90
2018,05,28,14,37,16.90
2018,05,28,14,38,16.90
2018,05,28,14,39,16.90
2018,05,28,14,40,16.90
2018,05,28,14,41,16.90
2018,05,28,14,42,16.90
2018,05,28,14,43,16.80
2018,05,28,14,44,16.80
2018,05,28,14,45,16.80
2018,05,28,14,46,16.70
2018,05,28,14,47,16.70
2018,05,28,14,48,16.60
2018,05,28,14,49,16.60
2018,05,28,14,50,16.60
2018,05,28,14,51,16.60
2018,05,28,14,52,16.60
2018,05,28,14,53,16.70
2018,05,28,14,54,16.70
2018,05,28,14,55,16.80
2018,05,28,14,56,16.80
2018,05,28,14,57,16.80
2018,05,28,14,58,16.90
2018,05,28,14,59,16.90
2018,05,28,15,00,16.90
2018,05,28,15,01,17.00
2018,05,28,15,02,17.00
2018,05,28,15,03,17.00
2018,05,28,15,04,16.90
2018,05,28,15,05,16.90
2018,05,28,15,06,16.90
2018,05,28,15,07,16.90
2018,05,28,15,08,17.00
2018,05,28,15,09,17.00
2018,05,28,15,10,17.00
2018,05,28,15,11,17.00
2018,05,28,15,12,17.10
2018,05,28,15,13,17.20
2018,05,28,15,14,17.10
2018,05,28,15,15,17.10
2018,05,28,15,16,17.10
2018,05,28,15,17,17.10
2018,05,28,15,18,17.10
2018,05,28,15,19,17.10
2018,05,28,15,20,17.10
2018,05,28,15,21,17.10
2018,05,28,15,22,17.20
2018,05,28,15,23,17.20
2018,05,28,15,24,17.20
2018,05,28,15,25,17.30
2018,05,28,15,26,17.30
2018,05,28,15,27,17.30
2018,05,28,15,28,17.30
2018,05,28,15,29,17.30
2018,05,28,15,30,17.30
2018,05,28,15,31,17.30
2018,05,28,15,32,17.30
2018,05,28,15,33,17.30
2018,05,28,15,34,17.30
2018,05,28,15,35,17.40
2018,05,28,15,36,17.40
2018,05,28,15,37,17.40
2018,05,28,15,38,17.50
2018,05,28,15,39,17.50
2018,05,28,15,40,17.50
2018,05,28,15,41,17.40
2018,05,28,15,42,17.40
2018,05,28,15,43,17.40
2018,05,28,15,44,17.40
2018,05,28,15,45,17.40
2018,05,28,15,46,17.40
2018,05,28,15,47,17.40
2018,05,28,15,48,17.40
2018,05,28,15,49,17.40
2018,05,28,15,50,17.40
2018,05,28,15,51,17.40
2018,05,28,15,52,17.50
2018,05,28,15,53,17.50
2018,05,28,15,54,17.50
2018,05,28,15,55,17.50
2018,05,28,15,56,17.50
2018,05,28,15,57,17.50
2018,05,28,15,58,17.50
2018,05,28,15,59,17.50
2018,05,28,16,00,17.50
2018,05,28,16,01,17.50
2018,05,28,16,02,17.40
2018,05,28,16,03,17.40
2018,05,28,16,04,17.40
2018,05,28,16,05,17.40
2018,05,28,16,06,17.40
2018,05,28,16,07,17.50
2018,05,28,16,08,17.50
2018,05,28,16,09,17.50
2018,05,28,16,10,17.50
2018,05,28,16,11,17.50
2018,05,28,16,12,17.50
2018,05,28,16,13,17.50
2018,05,28,16,14,17.40
2018,05,28,16,15,17.40
2018,05,28,16,16,17.40
2018,05,28,16,17,17.40
2018,05,28,16,18,17.40
2018,05,28,16,19,17.30
2018,05,28,16,20,17.30
2018,05,28,16,21,17.30
2018,05,28,16,22,17.30
2018,05,28,16,23,17.30
2018,05,28,16,24,17.30
2018,05,28,16,25,17.30
2018,05,28,16,26,17.30
2018,05,28,16,27,17.30
2018,05,28,16,28,17.40
2018,05,28,16,29,17.40
2018,05,28,16,30,17.40
2018,05,28,16,31,17.40
2018,05,28,16,32,17.40
2018,05,28,16,33,17.40
2018,05,28,16,34,17.30
2018,05,28,16,35,17.30
2018,05,28,16,36,17.30
2018,05,28,16,37,17.30
2018,05,28,16,38,17.30
2018,05,28,16,39,17.20
2018,05,28,16,40,17.20
2018,05,28,16,41,17.10
2018,05,28,16,42,17.10
2018,05,28,16,43,17.10
2018,05,28,16,44,17.10
2018,05,28,16,45,17.10
2018,05,28,16,46,17.10
2018,05,28,16,47,17.10
2018,05,28,16,48,17.10
2018,05,28,16,49,17.10
2018,05,28,16,50,17.10
2018,05,28,16,51,17.10
2018,05,28,16,52,17.10
2018,05,28,16,53,17.10
2018,05,28,16,54,17.10
2018,05,28,16,55,17.10
2018,05,28,16,56,17.10
2018,05,28,16,57,17.10
2018,05,28,16,58,17.10
2018,05,28,16,59,17.10
2018,05,28,17,00,17.10
2018,05,28,17,01,17.10
2018,05,28,17,02,17.10
2018,05,28,17,03,17.10
2018,05,28,17,04,17.10
2018,05,28,17,05,17.10
2018,05,28,17,06,17.10
2018,05,28,17,07,17.10
2018,05,28,17,08,17.10
2018,05,28,17,09,17.10
2018,05,28,17,10,17.20
2018,05,28,17,11,17.20
2018,05,28,17,12,17.30
2018,05,28,17,13,17.40
2018,05,28,17,14,17.40
2018,05,28,17,15,17.50
2018,05,28,17,16,17.50
2018,05,28,17,17,17.50
2018,05,28,17,18,17.40
2018,05,28,17,19,17.40